This is the latest recevied weather packets stored in our database for station/object DPX206-15. If no packets are shown the sender has not sent any weather packets the latest 1 day(s).
| Time | Temp. | Humidity | Pressure | Rain* | Wind** | Luminosity | Snow |
|---|---|---|---|---|---|---|---|
| 1778046417 | 9.44° C | 95% | 1006.2 hPa | 0.51 mm | - | 18 W/m² | - |
| 1778045667 | 9.44° C | 95% | 1006.1 hPa | 0.51 mm | - | 15 W/m² | - |
| 1778042666 | 9.44° C | 95% | 1006.1 hPa | 1.02 mm | - | 2 W/m² | - |
| 1778041916 | 9.44° C | 95% | 1006.4 hPa | 1.78 mm | - | 1 W/m² | - |
| 1778040415 | 9.44° C | 95% | 1006.5 hPa | 2.79 mm | - | 0 W/m² | - |
| 1778039665 | 9.44° C | 95% | 1006.5 hPa | 2.79 mm | - | 0 W/m² | - |
| 1778038915 | 9.44° C | 95% | 1006.4 hPa | 2.79 mm | - | 0 W/m² | - |
| 1778038165 | 9.44° C | 95% | 1006.8 hPa | 2.29 mm | - | 0 W/m² | - |
| 1778037415 | 10° C | 95% | 1006.8 hPa | 2.29 mm | - | 0 W/m² | - |
| 1778035164 | 10° C | 95% | 1007.2 hPa | 3.3 mm | - | 0 W/m² | - |
| 1778034415 | 10° C | 95% | 1007 hPa | 3.3 mm | - | 0 W/m² | - |
| 1778033664 | 10° C | 95% | 1007.1 hPa | 3.3 mm | - | 0 W/m² | - |
| 1778032914 | 10° C | 95% | 1007.1 hPa | 3.3 mm | - | 0 W/m² | - |
| 1778031413 | 10° C | 94% | 1007.5 hPa | 2.79 mm | - | 0 W/m² | - |
| 1778030663 | 10° C | 94% | 1007.1 hPa | 3.05 mm | - | 0 W/m² | - |
| 1778029913 | 10° C | 94% | 1007.4 hPa | 3.05 mm | - | 0 W/m² | - |
| 1778029162 | 10° C | 94% | 1007.6 hPa | 3.05 mm | - | 0 W/m² | - |
| 1778027662 | 10.56° C | 95% | 1007.7 hPa | 2.54 mm | - | 0 W/m² | - |
| 1778026912 | 10° C | 94% | 1007.7 hPa | 2.03 mm | - | 0 W/m² | - |
| 1778026162 | 10° C | 94% | 1008 hPa | 2.03 mm | - | 0 W/m² | - |
| 1778021661 | 10.56° C | 94% | 1008.4 hPa | 2.29 mm | - | 0 W/m² | - |
| 1778017910 | 11.11° C | 94% | 1008.5 hPa | 1.52 mm | - | 0 W/m² | - |
* Rain latest hour (hover to see other rain measurements)
** Current wind speed in m/s (hover to see current wind gust speed)